Regional Weather Roundup
Issued by NWS Glasgow, MT

Home | Current Version | Previous Version | Text Only | Print | Product List | Glossary On
Versions: 1 2 3 4 5 6 7 8 9 10 11 12 13 14 15 16 17 18 19 20 21 22 23 24 25 26 27 28 29 30 31 32 33 34 35 36 37 38 39 40 41 42 43 44 45 46 47 48 49 50
000
ASUS45 KGGW 032215
RWRGGW
HOURLY REGIONAL WEATHER ROUNDUP FOR NORTHEAST MONTANA
NATIONAL WEATHER SERVICE GLASGOW MONTANA
400 PM MDT TUE MAY 03 2016

NOTE: "FAIR" INDICATES FEW OR NO CLOUDS BELOW 12,000 FEET WITH NO
SIGNIFICANT WEATHER AND/OR OBSTRUCTIONS TO VISISBILITY.

NORTHEAST MONTANA


CITY           SKY/WX    TMP DP  RH WIND       PRES   REMARKS
GLASGOW        SUNNY     80  39  23 NW9       30.05F
PLENTYWOOD       N/A     77  32  19 N8G17       N/A
WOLF POINT     SUNNY     82  37  20 VRB3      30.04F
JORDAN           N/A     79  38  22 VRB5      30.08F
WINNETT          N/A     78  33  19 S5          N/A
SIDNEY         SUNNY     79  37  22 N12G18    30.04F
GLENDIVE       SUNNY     77  34  20 NW3       30.09S
OPHEIM           N/A     73  32  21 CALM      29.85S

FORT PECK REPORTS


CITY           SKY/WX    TMP DP  RH WIND       PRES   REMARKS
FORT PECK        N/A     71  42  35 S9          N/A
THE PINES        N/A     77  30  18 S5          N/A

SOUTHEAST MONTANA


CITY           SKY/WX    TMP DP  RH WIND       PRES   REMARKS
BILLINGS       MOSUNNY   76  33  21 E6        30.12F
MILES CITY     SUNNY     79  34  19 NW14      30.07F
BAKER          SUNNY     76  34  21 N13       30.09F
LIVINGSTON     SUNNY     77  28  16 W8        30.12F

CENTRAL MONTANA


CITY           SKY/WX    TMP DP  RH WIND       PRES   REMARKS
HAVRE          SUNNY     78  45  30 SW3       30.04F
LEWISTOWN      SUNNY     77  27  15 CALM      30.11F
GREAT FALLS    SUNNY     78  31  17 W6        30.07F
CUT BANK         N/A     77  30  17 SW9       30.05F
HELENA         SUNNY     80  31  16 VRB5      30.09F
BUTTE          SUNNY     71  26  18 S8        30.16F
BOZEMAN        SUNNY     76  31  19 N8        30.14F

WESTERN MONTANA


CITY           SKY/WX    TMP DP  RH WIND       PRES   REMARKS
MISSOULA       SUNNY     81  29  15 CALM      30.06F
KALISPELL      NOT AVBL

NORTH DAKOTA


CITY           SKY/WX    TMP DP  RH WIND       PRES   REMARKS
WILLISTON      SUNNY     81  39  22 N10       30.03S
DICKINSON      SUNNY     76  35  22 N16G28    30.02F
MINOT          SUNNY     79  28  15 N18G29    29.99F
BISMARCK       SUNNY     75  35  23 N18G28    29.97S

SOUTHERN SASKATCHEWAN


CITY           SKY/WX    TMP DP  RH WIND       PRES   REMARKS
REGINA         MOSUNNY   81  37  21 NE5       30.02F
MOOSE JAW      MOSUNNY   81  39  22 W9        30.02F
ESTEVAN        MOSUNNY   79  39  24 N16       30.03F
SWIFT CURRENT  MOSUNNY   81  36  19 S6        30.02F




USA.gov is the U.S. government's official web portal to all federal, state and local government web resources and services.